AB9HP Weather Reports


Display with metric or nautical units.
time (UTC)temp
F
wind
direction
speed
MPH
gust
MPH
rain 1hr
in
rain 24hr
in
rain mn
in
humidity
%
barometer
mb
20260903151543 87 262 4.0 13.0 0.00 0.00 0.00 71 1014.9
20260903150050 86 228 5.0 13.0 0.00 0.00 0.00 71 1014.8
20260903144541 86 164 4.0 9.0 0.00 0.00 0.00 73 1014.8
20260903143040 85 217 5.0 11.0 0.00 0.00 0.00 74 1014.8
20260903141534 84 238 5.0 10.0 0.00 0.00 0.00 73 1014.7
20260903140024 84 223 2.0 11.0 0.00 0.00 0.00 75 1014.8
20260903134536 83 227 8.0 12.0 0.00 0.00 0.00 76 1014.7
20260903133017 82 276 3.0 10.0 0.00 0.00 0.00 77 1014.9
20260903131512 81 205 3.0 6.0 0.00 0.00 0.00 78 1015.1
20260903130011 80 210 3.0 8.0 0.00 0.00 0.00 79 1015.1
20260903124507 79 245 5.0 11.0 0.00 0.00 0.00 80 1015.2
20260903123012 79 152 2.0 5.0 0.00 0.00 0.00 81 1015.2
20260903121502 78 203 3.0 7.0 0.00 0.00 0.00 82 1015.3
20260903120106 78 215 3.0 7.0 0.00 0.00 0.00 83 1015.2
20260903114558 78 224 2.0 6.0 0.00 0.00 0.00 83 1015.3
20260903113055 77 238 1.0 4.0 0.00 0.00 0.00 84 1015.1
20260903111551 77 236 2.0 4.0 0.00 0.00 0.00 83 1015.0
20260903110048 77 214 0.0 4.0 0.00 0.00 0.00 83 1014.9
20260903104550 77 252 1.0 4.0 0.00 0.00 0.00 84 1014.7
20260903103043 77 203 1.0 4.0 0.00 0.00 0.00 84 1014.6
20260903101541 78 231 0.0 4.0 0.00 0.00 0.00 83 1014.7
20260903100038 78 223 2.0 5.0 0.00 0.00 0.00 83 1014.6
20260903094540 78 248 2.0 4.0 0.00 0.00 0.00 83 1014.6
20260903093048 78 247 0.0 4.0 0.00 0.00 0.00 83 1014.5
20260903091530 79 231 1.0 6.0 0.00 0.00 0.00 83 1014.5
20260903090026 79 227 2.0 8.0 0.00 0.00 0.00 82 1014.4
20260903084522 79 232 3.0 10.0 0.00 0.00 0.00 82 1014.2
20260903083020 79 215 1.0 8.0 0.00 0.00 0.00 82 1014.1
20260903081536 79 233 2.0 7.0 0.00 0.00 0.00 82 1014.2
20260903080016 79 217 2.0 8.0 0.00 0.00 0.00 82 1014.1
20260903074514 79 225 3.0 8.0 0.00 0.00 0.00 82 1014.1
20260903073015 79 188 3.0 7.0 0.00 0.00 0.00 82 1014.0
20260903071513 79 228 5.0 9.0 0.00 0.00 0.00 82 1013.9
20260903070008 79 236 4.0 9.0 0.00 0.00 0.00 83 1014.0
20260903064506 79 208 2.0 10.0 0.00 0.00 0.00 83 1014.1
20260903063004 79 230 4.0 9.0 0.00 0.00 0.00 83 1014.1
20260903061503 79 217 2.0 7.0 0.00 0.00 0.00 83 1014.2
20260903060059 79 223 2.0 6.0 0.00 0.00 0.00 83 1014.2
20260903054555 79 199 1.0 6.0 0.00 0.00 0.00 83 1014.2
20260903053052 80 211 2.0 6.0 0.00 0.00 0.00 83 1014.2
20260903051552 80 205 2.0 5.0 0.00 0.00 0.00 83 1014.1
20260903050047 80 196 1.0 6.0 0.00 0.00 0.00 82 1013.9
20260903044546 80 226 0.0 5.0 0.00 0.00 0.00 82 1014.0
20260903043041 81 201 2.0 5.0 0.00 0.00 0.00 81 1013.7
20260903041536 81 207 3.0 7.0 0.00 0.00 0.00 81 1013.7
20260903040033 81 210 3.0 7.0 0.00 0.00 0.00 81 1013.7
20260903034530 81 183 2.0 5.0 0.00 0.00 0.00 81 1013.8
20260903033028 82 181 2.0 7.0 0.00 0.00 0.00 80 1013.9
20260903031532 83 229 1.0 6.0 0.00 0.00 0.00 79 1014.0
20260903030024 83 217 2.0 7.0 0.00 0.00 0.00 79 1014.0
20260903024522 83 199 1.0 4.0 0.00 0.00 0.00 80 1014.2
20260903023026 83 211 0.0 4.0 0.00 0.00 0.00 80 1014.2
20260903021536 83 225 1.0 6.0 0.00 0.00 0.00 79 1014.1
20260903020018 84 205 1.0 6.0 0.00 0.00 0.00 79 1014.1
20260903014513 84 195 3.0 7.0 0.00 0.00 0.00 78 1013.9
20260903013014 84 178 3.0 7.0 0.00 0.00 0.00 77 1013.8
20260903011509 85 203 3.0 7.0 0.00 0.00 0.00 76 1013.7
20260903010008 86 210 1.0 4.0 0.00 0.00 0.00 76 1013.7
20260903004506 86 219 1.0 7.0 0.00 0.00 0.00 76 1013.5
20260903003005 87 225 3.0 7.0 0.00 0.00 0.00 75 1013.6
20260903001504 88 224 1.0 6.0 0.00 0.00 0.00 74 1013.5
20260903000100 88 223 3.0 8.0 0.00 0.00 0.00 73 1013.6
20260902234600 89 234 1.0 7.0 0.00 0.00 0.00 71 1013.6
20260902233054 90 233 2.0 7.0 0.00 0.00 0.00 69 1013.6
20260902231559 91 229 2.0 8.0 0.00 0.00 0.00 67 1013.6
20260902230054 92 214 1.0 7.0 0.00 0.00 0.00 67 1013.5
20260902224549 92 230 5.0 11.0 0.00 0.00 0.00 65 1013.5
20260902223046 93 256 2.0 11.0 0.00 0.00 0.00 64 1013.6
20260902221553 93 204 5.0 12.0 0.00 0.00 0.00 63 1013.7
20260902220043 94 210 4.0 10.0 0.00 0.00 0.00 62 1013.6
20260902214543 94 243 4.0 11.0 0.00 0.00 0.00 63 1013.5
20260902213043 94 252 7.0 11.0 0.00 0.00 0.00 60 1013.5
20260902211536 94 186 5.0 13.0 0.00 0.00 0.00 60 1013.6
20260902210037 94 214 8.0 13.0 0.00 0.00 0.00 58 1013.6
20260902204529 95 240 2.0 11.0 0.00 0.00 0.00 61 1013.6
20260902203025 94 196 5.0 15.0 0.00 0.00 0.00 60 1013.9
20260902201522 94 205 2.0 14.0 0.00 0.00 0.00 61 1013.9
20260902200021 94 207 6.0 13.0 0.00 0.00 0.00 61 1014.1
20260902194518 94 238 6.0 15.0 0.00 0.00 0.00 60 1014.1
20260902193011 94 151 3.0 12.0 0.00 0.00 0.00 62 1014.4
20260902191513 94 237 5.0 13.0 0.00 0.00 0.00 61 1014.5
20260902190009 93 212 6.0 12.0 0.00 0.00 0.00 62 1014.8
20260902184502 93 240 8.0 14.0 0.00 0.00 0.00 61 1014.8
20260902183113 93 211 8.0 15.0 0.00 0.00 0.00 62 1014.9
20260902181555 92 207 7.0 14.0 0.00 0.00 0.00 62 1015.1
20260902180051 92 217 6.0 11.0 0.00 0.00 0.00 64 1015.1
20260902174556 92 211 8.0 15.0 0.00 0.00 0.00 64 1015.4
20260902173044 91 211 3.0 11.0 0.00 0.00 0.00 66 1015.4
20260902171541 91 260 4.0 11.0 0.00 0.00 0.00 65 1015.6
20260902170037 91 184 6.0 14.0 0.00 0.00 0.00 65 1015.7
20260902164535 90 226 4.0 11.0 0.00 0.00 0.00 66 1016.0
20260902163028 90 233 3.0 15.0 0.00 0.00 0.00 68 1015.8
20260902161523 89 261 6.0 11.0 0.00 0.00 0.00 68 1016.0
20260902160028 88 207 5.0 11.0 0.00 0.00 0.00 70 1016.0
20260902154521 88 278 4.0 10.0 0.00 0.00 0.00 71 1016.1
20260902153014 87 205 2.0 11.0 0.00 0.00 0.00 72 1016.0